Location: Unspecified
(0.0000°N, 0.0000°E)
Time: 21:52:31
(UTC+00:00)

Envisat - Pass Details

Date: 20 May 2017
Orbit: 764 x 766 km, 98.2° (Epoch: 24 May)

Event Time Altitude Azimuth Distance (km) Brightness Sun altitude
Exits shadow 19:59:45 12° 21° (NNE) 2,140 5.3 -28.7°
Drops below altitude 10° 20:00:12 10° 18° (NNE) 2,292 5.5 -28.8°
Sets 20:02:45 0° 7° (N) 3,214 6.4 -29.4°
